Theta_e
338 333 333 335 331 328 327 329 333 333 333 333 333 333 335 331 330 335 332 332 334 331
339 337 335 336 337 332 334 329 332 332 333 334 334 335 338 333 335 337 337 336 334 329
340 337 337 338 337 337 336 335 335 334 335 335 335 335 337 337 336 333 332 330 330 331
338 338 338 337 337 337 337 336 334 334 334 333 334 336 336 337 332 329 331 332 328 328
339 339 338 337 337 338 336 336 334 334 333 332 334 331 332 329 327 325 325 325 326 323
337 336 335 336 337 336 335 335 335 334 333 332 331 328 327 326 325 324 324 323 323 322
334 331 332 333 335 335 335 335 334 334 332 328 323 318 318 319 322 322 320 321 320 319
331 333 334 334 335 336 336 334 331 328 328 323 317 311 313 316 317 319 319 320 319 320
331 331 332 333 335 335 332 329 327 325 323 321 314 304 305 309 318 319 319 317 318 319
330 329 332 333 332 327 327 328 325 323 323 322 318 303 303 305 317 319 318 318 318 315
329 329 330 329 326 326 327 325 325 323 322 321 313 302 302 303 317 319 317 318 318 317
326 326 324 323 325 326 326 325 324 323 321 319 319 302 301 306 315 315 315 316 318 317
322 322 322 323 324 325 325 323 320 320 320 314 320 301 301 305 310 312 311 318 317 305
323 322 323 323 325 324 323 322 321 319 320 320 317 314 302 302 310 310 310 311 312 312
Wind_Speed
5 6 5 6 5 6 5 3 3 3 5 7 8 8 8 9 8 8 9 11 9 9
6 5 5 3 3 5 2 4 3 4 6 8 9 10 9 9 9 9 9 10 10 9
7 6 6 6 7 7 6 6 7 8 8 9 10 12 9 9 10 10 7 7 10 10
6 5 6 7 8 8 7 7 8 9 10 11 11 11 7 10 10 11 10 8 8 10
5 5 6 7 8 8 8 8 9 9 10 11 7 7 9 10 10 10 10 11 11 12
3 4 6 5 6 7 7 7 8 9 9 9 8 12 12 11 12 12 13 13 13 13
3 2 3 3 4 5 5 6 6 5 5 9 10 11 11 12 12 11 11 11 11 12
3 5 4 3 4 4 5 5 6 5 8 6 8 8 10 11 12 10 10 11 11 11
5 4 3 3 2 1 5 4 4 6 5 6 7 9 11 11 10 10 9 10 10 11
3 5 0 4 5 4 3 4 4 4 3 2 4 7 11 14 10 9 8 9 8 8
4 5 3 2 2 2 3 3 2 2 4 6 7 6 10 17 10 8 9 9 9 4
4 3 1 2 1 1 2 1 1 2 4 4 3 3 7 12 12 9 10 10 9 6
3 2 2 1 1 1 2 2 5 4 3 2 5 5 5 8 10 11 9 11 3 7
2 1 1 1 1 2 2 3 3 5 6 7 2 6 3 4 10 9 10 10 8 9
Wind_Direction
201 228 235 196 336 316 327 318 39 273 272 274 278 282 282 277 278 289 281 290 280 281
211 243 309 313 279 269 254 280 231 293 290 287 284 282 285 282 289 285 290 286 287 287
210 228 245 252 261 283 287 279 289 292 288 285 285 284 293 293 297 299 302 294 296 300
218 230 248 261 272 273 278 281 280 285 291 289 287 285 308 303 308 305 292 297 305 320
232 251 265 275 280 275 271 281 286 286 299 301 333 3 325 299 310 330 332 323 333 331
222 259 272 274 275 276 285 287 303 313 331 346 318 14 357 339 339 344 343 347 338 334
221 232 265 263 263 276 305 314 332 335 296 29 34 17 357 348 335 342 338 342 335 333
197 246 259 303 308 343 344 329 352 353 47 57 46 24 354 339 326 339 336 343 342 344
252 309 9 285 333 13 11 15 16 56 60 35 53 350 335 336 321 333 341 333 334 344
331 255 298 6 28 17 49 55 40 33 13 96 49 4 343 329 308 314 339 323 327 340
327 6 15 35 42 75 60 53 43 22 10 342 85 35 357 332 328 316 333 308 300 325
353 323 358 96 88 41 118 162 250 330 329 359 55 69 22 343 323 351 332 320 330 6
1 346 70 81 35 132 178 208 304 323 320 240 318 128 45 349 329 335 331 309 95 115
96 69 49 35 145 214 249 332 303 311 293 263 311 112 58 336 334 336 321 320 328 343